Lapse_Rate
4.1 3.4 2.7 2.2 2.3 2.2 2.4 1.8 0.9 0.7 1.0 0.5 0.7 0.8 0.9 0.8 1.3 0.0 -0.3 0.0 0.0 0.0 -0.1 0.2 0.1 -0.0 -0.5 -0.4 -0.3 0.6 1.0 1.9 2.5 3.1 4.7 5.5 4.3 4.3 3.8 4.1 4.4 4.9 5.5
4.3 4.0 3.3 3.0 4.0 3.5 3.3 2.1 2.0 0.9 1.8 1.5 1.6 1.3 1.6 1.3 0.8 0.1 0.5 0.3 0.1 0.2 -0.0 0.1 0.0 1.3 -0.8 -0.8 -0.7 -0.2 0.3 1.5 2.0 2.4 3.0 3.4 3.9 3.6 4.2 3.6 4.1 5.3 5.3
4.4 3.8 3.3 3.8 3.8 3.3 2.7 2.6 2.0 1.3 1.1 2.3 1.9 1.4 1.4 1.1 0.7 0.7 0.5 0.5 0.3 0.4 0.4 -0.1 0.0 -0.4 -0.7 -0.9 -0.7 -0.7 0.1 2.3 1.9 2.2 2.4 2.7 3.4 4.1 3.2 3.7 4.9 4.5 6.0
4.3 4.4 3.9 4.0 3.8 3.1 3.1 2.5 1.8 1.9 1.4 1.6 1.8 1.3 1.4 1.8 1.6 1.8 1.2 0.6 0.3 0.9 1.1 0.2 0.1 -0.2 -0.3 -0.5 -0.3 -0.5 0.4 0.4 1.3 1.7 1.9 2.8 5.8 5.7 6.5 5.7 2.9 4.8 5.3
4.3 4.4 4.0 3.7 3.6 3.7 3.0 2.4 2.3 1.8 1.7 2.1 1.8 2.0 2.2 2.0 2.3 1.1 1.4 1.1 0.9 1.0 1.6 1.5 0.8 0.6 1.1 0.6 -0.0 -0.4 -0.4 0.6 1.6 2.2 3.0 4.5 6.6 6.4 6.4 6.8 6.9 6.4 6.5
4.4 4.2 4.6 4.5 4.4 4.0 3.0 2.4 2.1 2.3 2.4 2.2 1.8 2.0 1.3 2.5 0.2 1.0 0.6 0.8 1.7 1.6 1.6 1.2 0.7 0.8 1.2 0.7 1.0 1.7 0.7 0.4 2.0 2.4 3.6 6.6 6.8 7.0 6.9 6.6 6.5 6.4 6.7
4.6 4.4 5.1 5.1 4.7 4.2 3.6 2.8 2.5 1.8 2.0 2.1 1.6 1.8 0.1 -0.8 0.2 1.0 0.6 0.6 0.8 0.8 1.2 2.0 1.5 0.7 0.3 0.3 0.8 1.6 1.5 1.8 3.2 2.8 4.9 7.0 6.8 6.8 6.3 6.3 6.3 6.2 6.6
5.1 5.0 5.3 5.1 5.0 4.1 3.8 3.0 2.2 1.7 1.8 1.6 1.4 1.4 -0.1 0.2 -0.2 0.2 0.5 0.4 0.6 1.1 1.6 1.3 -0.4 -1.3 -0.9 -0.7 -0.3 0.5 0.5 2.0 2.7 4.0 5.9 7.2 7.2 7.0 6.7 7.0 6.4 6.2 5.5
5.4 5.1 5.4 5.1 5.1 4.3 3.4 1.9 2.6 2.3 2.2 2.3 2.5 1.6 0.4 -1.1 -1.3 -0.2 -0.1 -0.1 1.3 2.0 2.4 2.1 -0.5 -1.7 -1.0 -0.5 -0.7 -0.1 -0.2 0.9 3.0 4.9 7.0 7.8 7.9 7.7 7.6 6.5 6.0 6.1 5.4
5.7 5.4 5.5 5.3 5.3 4.3 3.4 2.0 2.7 2.5 3.0 3.5 3.2 2.3 0.2 -1.1 -1.8 -0.9 -0.2 -0.2 0.8 2.4 0.1 -0.8 -0.8 -1.2 -1.2 -1.2 -2.0 -1.6 -1.2 -0.2 1.3 3.7 5.6 6.8 7.4 7.1 7.4 6.6 6.1 5.9 6.5
5.8 6.0 5.8 5.6 5.3 4.6 2.7 2.8 3.8 3.2 4.1 3.0 3.3 2.2 0.8 -0.8 -1.8 -1.3 -0.3 -0.1 0.7 1.5 0.2 -1.5 -2.1 -1.0 -1.0 -1.0 -1.0 -1.2 -0.0 0.8 1.4 3.0 3.7 4.4 5.9 5.3 5.5 5.9 6.0 6.2 6.0
5.9 6.3 6.2 5.9 6.4 5.4 4.3 3.2 4.5 3.7 3.5 2.7 2.5 2.3 0.5 -0.7 -1.1 -1.4 -0.7 -0.0 0.1 0.8 -0.2 -2.0 -1.9 -0.7 -0.3 -0.3 -0.7 0.1 1.3 3.1 1.9 4.0 5.4 5.8 5.3 4.6 4.3 5.4 6.0 7.2 7.3
6.0 6.3 6.0 6.0 6.4 5.5 4.6 3.8 4.5 4.0 3.6 3.0 3.1 2.4 -0.2 -1.0 -2.5 -1.5 -0.9 -1.0 -0.0 -0.6 -1.4 -1.2 -0.9 0.3 0.3 -0.1 0.0 0.4 1.3 0.3 1.8 4.4 5.9 6.1 5.7 5.6 5.8 5.2 6.1 6.6 8.2
6.0 6.0 5.6 5.5 5.7 5.1 5.5 4.8 4.3 3.6 2.9 3.6 2.9 1.8 -0.6 -2.7 -3.5 -4.2 -3.3 -2.5 -1.8 -1.9 -0.7 -0.6 -0.1 -0.4 -0.2 -1.1 -1.2 0.7 1.1 2.1 1.9 3.6 5.9 5.6 6.2 5.1 4.0 4.2 3.7 6.7 6.5
6.2 5.9 5.6 5.5 5.3 5.1 5.0 4.3 4.0 3.4 2.8 2.4 2.0 0.9 -0.4 -2.0 -3.1 -3.0 -3.1 -3.7 -3.9 -2.4 -2.0 -1.4 -1.8 -1.7 -0.9 -0.4 -0.5 -0.3 0.9 1.2 2.1 4.0 6.2 5.7 5.8 4.8 4.7 4.0 4.4 6.6 7.3
6.0 5.7 4.8 4.6 4.7 4.5 3.1 1.1 0.3 1.7 0.5 1.2 0.4 1.5 1.4 0.4 -1.6 -1.8 -1.5 -1.6 -1.8 -1.8 -1.4 -1.9 -3.0 -3.1 -2.1 -1.8 -1.4 -1.3 -0.6 0.8 1.9 4.4 6.0 5.3 6.1 6.3 4.8 4.3 4.1 6.6 6.6
5.9 5.6 3.8 3.7 4.0 2.3 2.3 2.6 2.6 -0.9 0.4 1.4 1.3 0.9 0.6 -0.7 -1.0 -0.9 -0.9 -0.9 -0.9 -2.3 -2.4 -2.9 -2.7 -2.3 -2.1 -1.4 -1.9 -1.1 -0.3 -0.2 2.6 2.1 3.3 4.3 4.9 5.6 6.2 4.6 5.1 6.6 6.7
5.3 1.6 4.0 3.6 3.9 1.6 2.6 2.4 3.2 2.8 2.6 0.9 0.3 1.9 0.3 -0.3 -0.5 -0.8 -1.4 -1.8 -2.6 -2.7 -2.2 -1.7 -2.0 -1.5 -0.7 -1.3 -1.8 -1.0 -1.1 -0.6 1.0 1.5 2.7 3.4 4.0 5.8 6.0 4.5 5.5 6.4 6.4
5.0 4.2 3.1 2.3 2.8 1.9 1.7 1.3 1.0 1.5 1.6 -0.4 -0.9 -1.0 -0.9 -0.3 -0.4 -0.9 -1.3 -1.8 -2.1 -2.6 -2.7 -2.4 -1.9 -1.5 -1.3 -1.3 -1.8 -1.7 -1.1 -1.1 0.0 1.4 2.2 2.9 3.4 4.9 6.0 5.4 5.1 6.1 6.6
4.7 1.6 1.2 1.6 1.4 1.1 1.2 1.3 0.8 1.5 1.2 0.9 0.1 -0.1 -2.1 -1.2 -1.0 -2.2 -2.0 -2.8 -2.5 -2.2 -2.2 -2.3 -2.2 -1.8 -2.1 -2.0 -2.0 -2.3 -2.0 -1.5 0.7 1.1 1.7 2.4 3.2 5.6 5.7 5.8 5.7 6.2 6.4
2.2 1.2 1.3 2.0 2.3 2.1 1.3 1.6 1.6 1.3 1.6 1.3 1.0 -1.3 -1.5 0.0 -1.2 -1.9 -2.6 -2.8 -2.4 -2.1 -1.9 -1.8 -2.1 -2.2 -2.2 -1.8 -2.0 -2.3 -1.6 -1.7 -0.9 1.0 1.4 2.0 2.8 5.0 5.8 5.7 5.8 6.2 6.4
0.9 0.9 1.9 1.8 1.8 2.0 1.4 1.5 1.2 1.2 1.5 1.4 0.3 -1.5 -1.9 -0.3 -1.4 -1.7 -2.4 -2.7 -2.8 -2.2 -1.5 -2.0 -2.1 -1.4 -1.2 -1.1 -1.8 -2.1 -2.2 -2.8 -2.0 0.7 1.2 2.0 2.5 3.7 5.5 5.8 5.9 5.8 6.3
0.6 -0.1 0.3 1.2 1.8 0.5 0.5 1.4 1.4 0.9 0.8 0.7 0.2 -1.0 -1.7 -0.8 -1.6 -1.5 -2.1 -2.5 -2.8 -2.4 -1.0 -0.9 -1.6 -1.6 -0.7 -0.1 -0.5 -1.1 -2.1 -2.2 -0.5 1.1 0.8 1.5 1.8 2.9 4.6 5.8 5.9 6.0 6.2
1.4 0.8 0.2 -0.4 -0.5 1.2 1.3 0.4 1.3 0.2 0.9 0.5 -0.2 -0.7 -1.3 -1.8 -2.1 -2.5 -2.7 -2.9 -2.6 -2.1 -1.2 -0.9 -0.9 -0.7 -1.0 -1.1 -0.4 0.1 0.2 0.5 1.1 1.3 1.2 1.4 1.6 2.2 3.7 5.7 5.8 5.9 6.0
1.5 1.2 0.1 0.8 0.5 1.0 0.2 0.5 1.1 1.1 0.9 0.3 -0.0 -0.1 -0.8 -1.2 -1.8 -2.8 -3.5 -3.5 -2.7 -2.6 -1.9 -1.4 -1.0 -0.6 -0.7 -1.2 -1.2 -0.4 -0.1 0.2 0.4 0.8 0.8 1.0 1.2 2.0 3.2 5.6 5.6 5.8 6.1
1.9 1.6 2.0 2.1 0.5 0.9 1.6 0.9 0.6 0.8 1.4 0.3 0.1 -0.4 -0.8 -1.4 -1.3 -2.4 -2.6 -2.7 -2.6 -2.5 -2.0 -2.3 -1.6 -0.9 -1.1 -1.2 -0.6 -0.4 -0.5 -0.4 -0.2 -0.2 0.0 0.6 0.9 1.3 2.6 4.5 6.1 5.9 6.3
Wind_Speed
13 9 8 7 7 8 8 9 8 10 11 8 9 8 7 7 10 6 6 7 7 6 5 6 7 6 5 5 4 4 4 3 2 3 2 6 7 9 18 18 21 20 21
13 11 9 7 8 8 8 8 13 8 12 10 10 7 6 6 9 6 7 6 7 6 6 7 6 6 6 6 4 5 4 4 2 5 3 5 6 9 14 14 18 20 18
14 12 9 9 9 8 8 9 9 7 8 10 9 7 7 6 6 7 7 6 6 6 5 6 6 6 5 3 3 4 3 3 3 2 3 3 3 12 10 11 13 15 17
14 13 11 11 10 8 9 9 7 8 7 6 7 7 7 7 7 7 6 6 6 5 5 6 6 6 5 4 4 4 3 3 3 2 2 4 7 9 5 8 9 8 9
14 14 12 10 9 9 10 8 7 7 7 8 7 7 8 7 5 6 5 6 5 4 3 6 8 8 8 4 2 3 4 2 2 3 4 4 8 7 8 7 6 7 8
14 14 12 12 10 11 10 8 7 7 7 7 7 7 7 3 14 13 8 4 5 6 5 6 8 7 6 6 10 11 9 2 2 3 3 5 6 6 6 6 6 6 5
14 14 14 12 12 11 11 9 8 8 7 7 8 7 6 6 12 11 9 4 4 6 5 5 6 7 7 8 10 14 18 11 5 1 4 5 6 7 6 7 8 7 6
15 14 14 13 13 11 11 10 8 6 7 7 7 7 7 6 15 12 8 3 1 5 6 6 7 5 5 5 4 6 5 8 10 7 4 6 7 11 7 7 7 6 6
16 15 15 14 13 13 12 10 8 6 6 6 7 8 9 7 15 15 9 3 2 4 5 7 10 6 5 6 5 5 5 4 8 9 11 12 16 15 13 6 5 5 3
17 16 16 15 13 14 13 10 7 5 7 6 7 7 10 9 14 16 11 3 2 3 5 8 13 10 7 6 5 5 5 3 3 4 6 11 13 15 14 9 4 3 3
16 14 15 15 13 13 9 6 10 6 8 6 7 6 8 9 10 15 14 4 2 3 5 4 4 9 8 8 6 3 2 3 3 4 4 3 6 9 11 12 12 2 2
15 15 15 15 11 10 12 8 10 9 9 7 7 5 5 6 14 15 14 8 4 4 4 4 6 9 9 6 4 5 5 6 1 3 3 3 3 4 7 13 12 14 2
15 16 15 14 13 12 12 10 9 9 8 7 7 7 5 4 5 17 16 14 7 3 6 10 11 9 5 3 5 7 2 2 2 2 2 2 2 7 13 10 11 11 7
16 15 13 14 12 13 10 10 9 9 8 9 8 8 5 5 5 4 5 9 10 6 7 6 6 5 4 4 2 5 3 3 0 1 1 2 5 3 2 4 2 3 1
15 14 13 12 13 12 11 10 10 10 10 10 9 8 9 7 8 13 11 7 5 6 5 2 2 2 2 2 3 4 2 3 2 1 1 2 2 3 2 3 2 2 2
14 12 11 11 10 10 9 4 5 10 14 13 13 10 7 9 18 19 19 17 17 14 3 3 3 3 3 3 3 2 2 3 1 1 1 1 2 3 2 3 2 2 1
14 13 9 10 10 8 9 10 9 4 1 15 16 14 14 11 20 21 20 18 18 9 3 3 3 4 3 3 3 3 3 2 1 1 0 1 1 3 4 3 3 3 2
12 12 10 10 11 7 10 10 9 10 8 3 4 8 13 16 19 20 20 15 5 3 3 4 4 5 4 4 4 4 3 2 1 1 1 0 2 2 3 2 5 4 2
11 9 9 8 9 9 8 8 7 7 8 5 3 4 3 15 20 23 25 5 6 5 4 4 4 4 4 4 4 4 4 3 2 1 2 1 2 2 3 2 3 5 3
12 12 10 9 8 8 8 8 7 8 8 8 7 6 6 5 6 7 8 4 5 5 5 5 5 5 5 5 5 4 4 3 2 2 1 0 2 2 3 3 2 3 2
7 8 12 9 10 10 9 10 9 9 9 9 9 7 14 10 9 10 9 8 8 6 6 6 5 5 5 6 6 5 4 4 3 2 2 1 2 2 3 3 3 3 2
6 8 9 10 9 10 9 9 9 10 9 9 6 6 13 8 8 9 9 9 8 8 10 6 5 7 9 9 7 6 5 5 4 3 2 2 2 3 2 2 2 2 2
5 6 6 7 9 9 9 9 9 9 9 9 8 8 10 11 9 10 10 9 8 9 14 14 10 8 16 19 19 17 7 5 8 9 3 3 2 3 3 3 2 2 2
3 4 6 5 6 8 8 8 9 10 10 9 8 9 10 10 10 11 9 8 8 12 15 16 15 15 16 18 21 22 19 17 14 11 8 6 3 3 3 3 3 3 2
4 2 4 5 6 6 6 6 8 9 9 9 9 9 9 9 9 8 8 8 7 9 12 16 17 20 24 24 23 24 21 18 16 14 12 9 6 5 4 3 3 3 3
5 5 3 2 1 3 6 6 6 7 9 8 9 10 10 11 10 9 8 9 9 8 14 14 18 22 25 25 27 25 24 22 18 15 13 10 5 4 3 4 4 2 4
Wind_Direction
152 151 157 169 156 146 137 144 140 139 139 136 130 121 115 114 112 100 93 89 85 73 73 73 58 59 47 34 25 27 29 36 347 307 289 322 10 1 6 8 355 350 346
154 155 162 152 146 140 143 140 140 143 146 144 139 129 124 118 110 108 95 95 90 77 71 75 63 57 44 32 32 31 34 6 8 329 302 2 353 19 357 358 347 343 340
156 155 151 152 149 144 142 142 147 149 150 148 140 135 132 128 120 113 110 109 107 98 95 101 95 79 57 33 35 32 17 2 0 5 332 333 316 11 352 352 344 330 343
154 156 156 157 156 149 147 151 149 154 150 149 148 140 140 147 142 130 121 116 131 134 131 128 121 111 107 62 35 11 7 2 3 2 352 339 1 351 353 341 344 345 337
156 158 161 158 150 149 147 150 156 155 156 154 141 144 146 151 135 130 132 131 127 125 128 126 128 122 107 80 9 326 331 318 358 4 358 357 355 350 353 337 335 330 327
158 159 158 158 153 156 155 156 157 158 159 151 148 152 153 125 133 121 120 143 124 109 97 81 113 93 108 28 7 350 291 196 51 13 358 355 340 340 332 328 329 339 338
157 158 164 162 158 160 160 157 165 168 158 163 158 154 138 139 146 137 118 96 128 122 116 103 130 95 74 37 6 25 58 75 43 22 356 341 324 322 319 318 326 325 330
162 162 166 165 164 164 167 168 171 165 168 165 162 151 147 165 158 146 139 140 82 160 155 146 127 121 83 58 34 48 52 38 24 15 334 308 306 314 306 305 308 318 303
167 167 171 171 172 173 175 173 173 155 163 162 164 156 158 165 170 156 153 167 242 213 169 150 125 121 111 61 67 70 44 10 360 3 348 346 350 352 355 339 345 360 329
172 170 172 175 176 179 177 172 166 157 164 161 165 159 165 167 180 167 166 149 237 168 97 85 117 123 102 87 91 85 50 320 325 332 337 6 358 354 355 357 339 344 322
171 170 173 176 176 174 161 162 163 155 162 164 171 163 164 166 180 180 174 155 191 161 146 143 140 132 121 124 114 102 51 325 343 343 354 347 342 340 343 343 337 301 309
169 173 173 174 174 165 165 158 163 160 166 175 168 168 165 164 168 185 177 158 173 141 129 151 164 161 147 149 152 211 359 14 13 3 359 332 349 336 325 334 344 329 279
170 174 171 168 175 168 169 166 167 168 173 183 176 175 169 165 164 176 182 180 175 123 141 168 177 169 170 193 238 252 273 62 341 5 342 309 309 316 322 339 355 346 359
172 171 166 168 172 168 172 174 175 178 179 185 179 180 166 164 169 166 172 175 180 174 179 183 186 173 198 213 202 148 163 97 270 333 316 313 334 309 313 343 321 321 332
171 170 170 173 172 172 175 179 182 191 186 185 186 175 170 185 197 177 174 182 182 190 167 158 158 186 202 158 130 158 132 74 15 331 338 335 338 320 323 327 305 310 6
173 173 171 171 173 171 161 125 26 180 178 175 163 171 200 168 160 175 179 180 180 176 142 179 189 174 162 169 160 172 144 122 272 311 314 334 316 311 326 321 321 328 330
174 173 165 165 173 158 164 168 174 351 167 183 177 172 170 168 168 173 175 177 175 148 172 184 181 174 183 197 180 168 169 188 170 126 317 353 318 317 330 322 336 343 335
171 167 169 171 175 162 172 177 176 178 183 192 23 179 169 162 163 159 150 127 154 220 179 186 192 189 188 196 162 153 166 167 172 189 84 32 315 298 316 318 346 346 297
167 172 163 165 171 162 160 163 166 167 174 162 112 58 118 153 156 158 161 166 181 193 195 197 197 192 184 174 159 155 153 169 197 208 135 125 293 291 309 303 340 344 324
175 163 151 156 157 157 160 164 165 175 174 176 175 170 138 114 161 180 194 175 181 191 190 195 198 193 178 160 164 159 158 168 169 174 175 182 272 271 285 297 293 315 306
161 157 156 157 169 172 168 173 176 178 186 189 194 177 176 179 182 189 195 201 199 196 194 193 191 183 171 163 163 162 159 169 178 190 162 204 244 269 276 270 279 292 288
150 157 163 166 166 173 173 170 177 183 188 190 187 173 179 191 185 193 198 204 205 202 197 184 184 182 176 170 162 163 170 178 191 177 179 208 235 259 269 270 288 275 282
134 144 150 162 172 166 166 173 178 180 186 190 178 173 187 205 201 203 203 202 196 198 203 197 186 183 181 179 176 173 173 184 188 175 163 195 227 257 271 279 273 278 282
54 138 147 145 149 170 176 175 181 181 186 188 178 186 195 204 208 208 201 193 191 196 195 195 190 177 177 176 177 183 187 189 179 177 197 204 214 254 264 270 266 268 257
20 126 150 160 163 171 170 178 185 188 189 186 187 192 194 197 204 202 191 185 187 187 197 191 187 183 177 175 175 180 183 185 181 192 198 201 219 246 253 251 255 276 278
29 42 65 89 120 171 185 189 191 190 196 194 194 195 193 193 196 191 190 191 189 191 192 192 188 181 181 183 187 188 187 186 186 195 192 203 211 236 240 252 267 256 273